CDT,Max TemperatureF,Mean TemperatureF,Min TemperatureF,Max Dew PointF,MeanDew PointF,Min DewpointF,Max Humidity, Mean Humidity, Min Humidity, Max Sea Level PressureIn, Mean Sea Level PressureIn, Min Sea Level PressureIn, Max VisibilityMiles, Mean VisibilityMiles, Min VisibilityMiles, Max Wind SpeedMPH, Mean Wind SpeedMPH, Max Gust SpeedMPH,PrecipitationIn, CloudCover, Events, WindDirDegrees
2013-3-1,30,24,18,16,14,10,71,62,51,30.39,30.34,30.27,10,10,10,16,9,20,0.00,5,,17
2013-3-2,28,18,9,11,8,6,88,62,38,30.40,30.32,30.22,10,10,10,8,3,,0.00,2,,332
2013-3-3,32,24,17,11,8,5,71,50,36,30.20,30.11,30.03,10,10,10,13,7,,0.00,4,,126
2013-3-4,28,26,24,23,17,8,93,72,43,30.08,30.02,29.98,10,4,0,16,10,24,0.07,8,Fog-Snow,108
2013-3-5,28,26,21,23,21,16,93,82,72,30.34,30.09,29.99,10,3,0,15,6,,0.18,8,Fog-Snow,41
2013-3-6,27,22,15,18,15,11,86,74,61,30.46,30.40,30.34,10,9,2,13,8,,0.00,5,,326
2013-3-7,30,20,10,17,12,8,96,78,52,30.44,30.39,30.34,10,5,0,14,2,,0.00,3,Fog,131
2013-3-8,37,28,19,28,22,14,88,75,65,30.37,30.28,30.12,10,6,4,16,8,21,0.00,0,,145
2013-3-9,37,35,33,36,33,27,100,92,72,30.12,29.85,29.72,6,2,0,15,9,,0.37,8,Fog-Rain,137
2013-3-10,35,32,30,34,28,24,93,80,72,29.96,29.89,29.79,10,8,2,17,11,26,0.01,8,Rain-Snow,354
2013-3-11,30,28,24,25,21,17,80,74,64,29.88,29.82,29.76,10,10,2,15,12,22,0.00,7,Snow,325
2013-3-12,28,24,21,17,14,10,75,62,47,30.22,29.99,29.86,10,10,6,21,12,30,0.00,6,Snow,308
2013-3-13,33,24,15,16,11,9,80,62,38,30.42,30.34,30.22,10,10,10,14,9,,0.00,0,,287
2013-3-14,39,30,23,27,22,17,93,79,64,30.28,30.16,30.05,10,5,1,13,8,,0.02,5,Snow,140
2013-3-15,34,29,24,29,26,21,88,84,75,30.03,29.93,29.85,10,3,1,12,5,18,0.12,8,Rain-Snow,38
2013-3-16,25,20,15,20,11,3,85,66,51,30.28,30.12,29.95,10,10,6,16,11,21,0.00,4,,324
2013-3-17,27,18,8,18,5,-2,69,57,49,30.32,30.16,29.91,10,10,10,16,9,23,0.00,3,,101
2013-3-18,30,22,14,27,17,6,93,78,63,29.88,29.70,29.61,10,4,0,28,16,37,0.12,8,Fog-Snow,218
2013-3-19,23,14,8,5,2,-3,73,60,45,30.23,30.03,29.82,10,10,7,23,19,33,0.00,1,,293
2013-3-20,21,14,7,3,-1,-4,61,54,46,30.25,30.21,30.15,10,10,10,21,16,28,0.00,0,,301
2013-3-21,28,17,6,10,4,-2,74,57,41,30.18,30.13,30.07,10,10,10,7,4,,0.00,0,,322
2013-3-22,37,24,12,16,11,6,77,59,34,30.14,30.11,30.07,10,10,8,8,1,,0.00,0,,225
2013-3-23,37,28,19,19,16,13,78,58,41,30.18,30.15,30.10,10,10,7,12,3,,0.00,1,,266
2013-3-24,33,30,28,23,20,17,72,66,59,30.12,30.06,30.00,10,10,10,13,7,20,0.00,7,,3
2013-3-25,37,30,23,21,17,14,72,58,42,30.24,30.15,30.07,10,10,10,15,11,21,0.00,1,,339
2013-3-26,39,32,28,21,20,19,69,60,47,30.33,30.29,30.24,10,10,10,9,7,,0.00,7,,302
2013-3-27,42,32,23,22,20,14,88,59,35,30.37,30.35,30.33,10,9,5,8,3,,0.00,2,,247
2013-3-28,43,34,24,25,22,19,84,64,40,30.38,30.35,30.31,10,9,5,9,2,,0.00,0,,144
2013-3-29,48,38,28,33,29,23,79,70,54,30.32,30.25,30.11,10,8,5,14,5,,0.00,5,Rain,144
2013-3-30,41,41,41,33,33,33,73,73,73,30.09,30.05,30.01,10,9,9,10,9,,0.00,7,,147
2013-3-31,,,,,,,,,,,,,,,,,,,,,,